Location: Atherton
(17.2661°S, 145.4859°E)
Time: 23:40:21
(UTC+10:00)

Vanguard 1 - Pass Details

Date: 30 June 2025
Orbit: 649 x 3822 km, 34.2° (Epoch: 17 July)

Event Time Altitude Azimuth Distance (km) Brightness Sun altitude
Rises 20:15:31 0° 262° (W) 7,336 15.4 -32.3°
Reaches altitude 10° 20:21:54 10° 254° (WSW) 5,848 14.6 -33.8°
Maximum altitude 20:35:52 34° 194° (SSW) 2,963 12.3 -37.0°
Enters shadow 20:37:16 33° 182° (S) 2,859 12.2 -37.3°
Drops below altitude 10° 20:44:09 10° 131° (SE) 3,467 - -38.9°
Sets 20:46:52 0° 121° (ESE) 4,112 - -39.5°
